This demonstration page uses our WeatherBlox Daily Observations layout. Learn more.

38.89511, -77.03637

Hourly Observations for April 5, 2017

Temp ( °F °C ) Dew Point ( °F °C ) Humidity (%) Winds ( mph kmh ) Pressure ( in mb ) Visibility ( mi km ) Precip ( " mm )
12:52 am 00:52 Partly Cloudy 68 20 44 6.7 42 42 WNW 12 19 29.77 1008 10 16.09344 0 0
1:52 am 01:52 Mostly Cloudy 64 17.8 45 7.2 50 50 NNW 8 13 29.77 1008 10 16.09344 0 0
2:52 am 02:52 Mostly Cloudy 66 18.9 44 6.7 45 45 NW 10 17 29.8 1009 10 16.09344 0 0
3:52 am 03:52 Mostly Cloudy 64 17.8 41 5 43 43 Calm 29.8 1009 10 16.09344 0 0
4:52 am 04:52 Mostly Cloudy 62 16.7 43 6.1 50 50 WSW 5 7 29.83 1010 10 16.09344 0 0
5:52 am 05:52 Mostly Cloudy 62 16.7 42 5.6 48 48 WNW 3 6 29.85 1011 10 16.09344 0 0
6:52 am 06:52 Mostly Sunny 62 16.7 43 6.1 50 50 WSW 5 7 29.88 1012 10 16.09344 0 0
7:52 am 07:52 Mostly Sunny 63 17.2 46 7.8 54 54 NNW 7 11 29.91 1013 10 16.09344 0 0
8:52 am 08:52 Partly Cloudy 63 17.2 45 7.2 52 52 NNW 14 22 29.91 1013 10 16.09344 0 0
9:52 am 09:52 Partly Cloudy 65 18.3 47 8.3 52 52 NNW 10 17 29.94 1014 10 16.09344 0 0
10:52 am 10:52 Mostly Cloudy 66 18.9 46 7.8 49 49 N 7 11 29.94 1014 10 16.09344 0 0
11:52 am 11:52 Partly Cloudy 69 20.6 48 8.9 47 47 NNE 6 9 29.91 1013 10 16.09344 0 0
12:52 pm 12:52 Partly Cloudy 71 21.7 48 8.9 44 44 WNW 6 9 29.91 1013 10 16.09344 0 0
1:52 pm 13:52 Mostly Cloudy 71 21.7 47 8.3 42 42 ESE 7 11 29.88 1012 10 16.09344 0 0
2:52 pm 14:52 Cloudy 72 22.2 45 7.2 38 38 ESE 3 6 29.88 1012 10 16.09344 0 0
3:52 pm 15:52 Cloudy 73 22.8 46 7.8 38 38 SSE 3 6 29.85 1011 10 16.09344 0 0
4:52 pm 16:52 Cloudy 71 21.7 48 8.9 44 44 E 14 22 29.83 1010 10 16.09344 0 0
5:52 pm 17:52 Cloudy 69 20.6 48 8.9 47 47 ESE 12 19 29.83 1010 10 16.09344 0 0
6:52 pm 18:52 Cloudy 68 20 48 8.9 49 49 ESE 10 17 29.83 1010 10 16.09344 0 0
7:52 pm 19:52 Cloudy 67 19.4 48 8.9 51 51 ESE 9 15 29.83 1010 10 16.09344 0 0
8:52 pm 20:52 Cloudy 66 18.9 49 9.4 54 54 SSE 14 22 29.8 1009 10 16.09344 0 0
9:52 pm 21:52 Cloudy 62 16.7 47 8.3 58 58 SSE 13 20 29.8 1009 10 16.09344 0 0
10:52 pm 22:52 Cloudy 60 15.6 47 8.3 62 62 ESE 12 19 29.77 1008 10 16.09344 0 0
11:52 pm 23:52 Cloudy 59 15 47 8.3 64 64 ESE 8 13 29.77 1008 10 16.09344 0 0

Powered by AerisWeather